START_TIME,STEP,MOV.,E45,t_acc.,ALAR?,t_acc.,A12,t_acc.,A24,t_acc.
1979-08-05 03:00:24.970 ,1,0,7.,4.8,240.,4.8,0.,4.8,0.,4.8
1979-08-05 03:00:29.770 ,1,0,3.,4.8,248.,4.8,0.,4.8,0.,4.8
1979-08-05 03:00:34.570 ,1,0,0.,4.8,264.,4.8,0.,4.8,0.,4.8
1979-08-05 03:00:39.370 ,1,0,4.,4.8,264.,4.8,0.,4.8,0.,4.8
1979-08-05 03:00:44.170 ,1,0,3.,4.8,220.,4.8,0.,4.8,0.,4.8
1979-08-05 03:00:48.970 ,2,0,3.,4.8,256.,4.8,0.,4.8,0.,4.8
1979-08-05 03:00:53.770 ,2,0,3.,4.8,216.,4.8,0.,4.8,0.,4.8
1979-08-05 03:00:58.570 ,2,0,1.,4.8,264.,4.8,0.,4.8,0.,4.8
1979-08-05 03:01:03.370 ,2,0,4.,4.8,240.,4.8,0.,4.8,0.,4.8
1979-08-05 03:01:08.170 ,2,0,4.,4.8,256.,4.8,0.,4.8,0.,4.8
1979-08-05 03:01:12.970 ,2,0,2.,4.8,196.,4.8,0.,4.8,0.,4.8
1979-08-05 03:01:17.770 ,2,0,3.,4.8,256.,4.8,0.,4.8,0.,4.8
1979-08-05 03:01:22.570 ,2,0,1.,4.8,240.,4.8,0.,4.8,0.,4.8
1979-08-05 03:01:27.370 ,2,0,2.,4.8,216.,4.8,0.,4.8,0.,4.8
1979-08-05 03:01:32.170 ,2,0,3.,4.8,288.,4.8,0.,4.8,0.,4.8
1979-08-05 03:01:36.970 ,3,0,0.,4.8,244.,4.8,0.,4.8,0.,4.8
1979-08-05 03:01:41.770 ,3,0,1.,4.8,264.,4.8,0.,4.8,0.,4.8
1979-08-05 03:01:46.570 ,3,0,2.,4.8,264.,4.8,0.,4.8,0.,4.8
1979-08-05 03:01:51.370 ,3,0,2.,4.8,224.,4.8,0.,4.8,0.,4.8
1979-08-05 03:01:56.170 ,3,0,2.,4.8,252.,4.8,0.,4.8,0.,4.8
1979-08-05 03:02:00.970 ,3,0,0.,4.8,232.,4.8,0.,4.8,0.,4.8
1979-08-05 03:02:05.770 ,3,0,3.,4.8,272.,4.8,0.,4.8,0.,4.8
1979-08-05 03:02:10.570 ,3,0,0.,4.8,244.,4.8,0.,4.8,0.,4.8
1979-08-05 03:02:15.370 ,3,0,3.,4.8,236.,4.8,0.,4.8,0.,4.8
1979-08-05 03:02:20.170 ,3,0,0.,4.8,264.,4.8,0.,4.8,0.,4.8
1979-08-05 03:02:24.970 ,4,0,2.,4.8,288.,4.8,0.,4.8,0.,4.8
1979-08-05 03:02:29.770 ,4,0,3.,4.8,244.,4.8,0.,4.8,0.,4.8
1979-08-05 03:02:34.570 ,4,0,2.,4.8,240.,4.8,0.,4.8,0.,4.8
1979-08-05 03:02:39.370 ,4,0,1.,4.8,248.,4.8,0.,4.8,0.,4.8
1979-08-05 03:02:44.170 ,4,0,2.,4.8,288.,4.8,0.,4.8,0.,4.8
1979-08-05 03:02:48.970 ,4,0,2.,4.8,252.,4.8,0.,4.8,0.,4.8
1979-08-05 03:02:53.770 ,4,0,1.,4.8,244.,4.8,0.,4.8,0.,4.8
1979-08-05 03:02:58.570 ,4,0,1.,4.8,264.,4.8,0.,4.8,0.,4.8
1979-08-05 03:03:03.370 ,4,0,1.,4.8,256.,4.8,0.,4.8,0.,4.8
1979-08-05 03:03:08.170 ,4,0,1.,4.8,252.,4.8,0.,4.8,0.,4.8
1979-08-05 03:03:12.970 ,5,0,2.,4.8,256.,4.8,0.,4.8,0.,4.8
1979-08-05 03:03:17.770 ,5,0,2.,4.8,240.,4.8,0.,4.8,0.,4.8
1979-08-05 03:03:22.570 ,5,0,1.,4.8,272.,4.8,0.,4.8,0.,4.8
1979-08-05 03:03:27.370 ,5,0,3.,4.8,248.,4.8,0.,4.8,0.,4.8
1979-08-05 03:03:32.170 ,5,0,5.,4.8,256.,4.8,0.,4.8,0.,4.8
1979-08-05 03:03:36.970 ,5,0,2.,4.8,264.,4.8,0.,4.8,0.,4.8
1979-08-05 03:03:41.770 ,5,0,2.,4.8,236.,4.8,0.,4.8,0.,4.8
1979-08-05 03:03:46.570 ,5,0,2.,4.8,252.,4.8,0.,4.8,0.,4.8
1979-08-05 03:03:51.370 ,5,0,3.,4.8,280.,4.8,0.,4.8,0.,4.8
1979-08-05 03:03:56.170 ,5,0,3.,4.8,232.,4.8,0.,4.8,0.,4.8
1979-08-05 03:04:00.970 ,6,0,4.,4.8,244.,4.8,0.,4.8,0.,4.8
1979-08-05 03:04:05.770 ,6,0,2.,4.8,256.,4.8,0.,4.8,0.,4.8
1979-08-05 03:04:10.570 ,6,0,1.,4.8,256.,4.8,0.,4.8,0.,4.8
1979-08-05 03:04:15.370 ,6,0,2.,4.8,252.,4.8,0.,4.8,0.,4.8
1979-08-05 03:04:20.170 ,6,0,5.,4.8,264.,4.8,0.,4.8,0.,4.8
1979-08-05 03:04:24.970 ,6,0,5.,4.8,224.,4.8,0.,4.8,0.,4.8
1979-08-05 03:04:29.770 ,6,0,4.,4.8,264.,4.8,0.,4.8,0.,4.8
1979-08-05 03:04:34.570 ,6,0,2.,4.8,256.,4.8,0.,4.8,0.,4.8
1979-08-05 03:04:39.370 ,6,0,1.,4.8,264.,4.8,0.,4.8,0.,4.8
1979-08-05 03:04:44.170 ,6,0,3.,4.8,236.,4.8,0.,4.8,0.,4.8
1979-08-05 03:04:48.970 ,7,0,3.,4.8,264.,4.8,0.,4.8,0.,4.8
1979-08-05 03:04:53.770 ,7,0,2.,4.8,256.,4.8,0.,4.8,0.,4.8
1979-08-05 03:04:58.570 ,7,0,4.,4.8,272.,4.8,0.,4.8,0.,4.8
1979-08-05 03:05:03.370 ,7,0,3.,4.8,256.,4.8,0.,4.8,0.,4.8
1979-08-05 03:05:08.170 ,7,0,1.,4.8,248.,4.8,0.,4.8,0.,4.8
1979-08-05 03:05:12.970 ,7,0,1.,4.8,244.,4.8,0.,4.8,0.,4.8
1979-08-05 03:05:17.770 ,7,0,,0,,0,,0,,0
1979-08-05 03:05:22.570 ,7,0,4.,4.8,220.,4.8,0.,4.8,0.,4.8
1979-08-05 03:05:27.370 ,7,0,3.,4.8,240.,4.8,0.,4.8,0.,4.8
1979-08-05 03:05:32.170 ,7,0,4.,4.8,236.,4.8,0.,4.8,0.,4.8
1979-08-05 03:05:36.970 ,7,0,2.,4.8,228.,4.8,0.,4.8,0.,4.8
1979-08-05 03:05:41.770 ,7,0,1.,4.8,252.,4.8,0.,4.8,0.,4.8
1979-08-05 03:05:46.570 ,7,0,1.,4.8,240.,4.8,0.,4.8,0.,4.8
1979-08-05 03:05:51.370 ,7,0,4.,4.8,264.,4.8,0.,4.8,0.,4.8
1979-08-05 03:05:56.170 ,7,0,1.,4.8,252.,4.8,0.,4.8,0.,4.8
1979-08-05 03:06:00.970 ,7,0,0.,4.8,256.,4.8,0.,4.8,0.,4.8
1979-08-05 03:06:05.770 ,7,0,0.,4.8,264.,4.8,0.,4.8,0.,4.8
1979-08-05 03:06:10.570 ,7,0,4.,4.8,272.,4.8,0.,4.8,0.,4.8
1979-08-05 03:06:15.370 ,7,0,0.,4.8,256.,4.8,0.,4.8,0.,4.8
1979-08-05 03:06:20.170 ,7,0,1.,4.8,272.,4.8,0.,4.8,0.,4.8
1979-08-05 03:06:24.970 ,6,0,3.,4.8,252.,4.8,0.,4.8,0.,4.8
1979-08-05 03:06:29.770 ,6,0,3.,4.8,236.,4.8,0.,4.8,0.,4.8
1979-08-05 03:06:34.570 ,6,0,2.,4.8,240.,4.8,0.,4.8,0.,4.8
1979-08-05 03:06:39.370 ,6,0,2.,4.8,256.,4.8,0.,4.8,0.,4.8
1979-08-05 03:06:44.170 ,6,0,1.,4.8,236.,4.8,0.,4.8,0.,4.8
1979-08-05 03:06:48.970 ,6,0,4.,4.8,240.,4.8,0.,4.8,0.,4.8
1979-08-05 03:06:53.770 ,6,0,1.,4.8,264.,4.8,0.,4.8,0.,4.8
1979-08-05 03:06:58.570 ,6,0,6.,4.8,264.,4.8,0.,4.8,0.,4.8
1979-08-05 03:07:03.370 ,6,0,1.,4.8,236.,4.8,0.,4.8,0.,4.8
1979-08-05 03:07:08.170 ,6,0,2.,4.8,280.,4.8,0.,4.8,0.,4.8
1979-08-05 03:07:12.970 ,5,0,3.,4.8,236.,4.8,0.,4.8,0.,4.8
1979-08-05 03:07:17.770 ,5,0,3.,4.8,244.,4.8,0.,4.8,0.,4.8
1979-08-05 03:07:22.570 ,5,0,5.,4.8,240.,4.8,0.,4.8,0.,4.8
1979-08-05 03:07:27.370 ,5,0,0.,4.8,264.,4.8,0.,4.8,0.,4.8
1979-08-05 03:07:32.170 ,5,0,4.,4.8,244.,4.8,0.,4.8,0.,4.8
1979-08-05 03:07:36.970 ,5,0,3.,4.8,264.,4.8,0.,4.8,0.,4.8
1979-08-05 03:07:41.770 ,5,0,2.,4.8,240.,4.8,0.,4.8,0.,4.8
1979-08-05 03:07:46.570 ,5,0,1.,4.8,264.,4.8,0.,4.8,0.,4.8
1979-08-05 03:07:51.370 ,5,0,1.,4.8,256.,4.8,0.,4.8,0.,4.8
1979-08-05 03:07:56.170 ,5,0,2.,4.8,272.,4.8,0.,4.8,0.,4.8
1979-08-05 03:08:00.970 ,4,0,3.,4.8,240.,4.8,0.,4.8,0.,4.8
1979-08-05 03:08:05.770 ,4,0,3.,4.8,264.,4.8,0.,4.8,0.,4.8
1979-08-05 03:08:10.570 ,4,0,0.,4.8,248.,4.8,0.,4.8,0.,4.8
1979-08-05 03:08:15.370 ,4,0,1.,4.8,232.,4.8,0.,4.8,0.,4.8
1979-08-05 03:08:20.170 ,4,0,1.,4.8,272.,4.8,0.,4.8,0.,4.8
1979-08-05 03:08:24.970 ,0,0,3.,4.8,272.,4.8,0.,4.8,0.,4.8
1979-08-05 03:08:29.770 ,0,0,3.,4.8,252.,4.8,0.,4.8,0.,4.8
1979-08-05 03:08:34.570 ,0,0,,0,,0,,0,,0
1979-08-05 03:08:39.370 ,0,0,,0,,0,,0,,0
1979-08-05 03:08:44.170 ,0,0,,0,,0,,0,,0
1979-08-05 03:08:33.970 ,0,0,,0,,0,,0,,0
1979-08-05 03:08:38.770 ,0,0,,0,,0,,0,,0
1979-08-05 03:08:43.570 ,0,0,2.,4.8,244.,4.8,0.,4.8,0.,4.8
1979-08-05 03:08:48.370 ,0,0,0.,4.8,264.,4.8,0.,4.8,0.,4.8
1979-08-05 03:08:53.170 ,0,0,2.,4.8,240.,4.8,0.,4.8,0.,4.8
1979-08-05 03:08:48.970 ,3,0,0.,4.8,264.,4.8,0.,4.8,0.,4.8
1979-08-05 03:08:53.770 ,3,0,0.,4.8,264.,4.8,0.,4.8,0.,4.8
1979-08-05 03:08:58.570 ,3,0,2.,4.8,236.,4.8,0.,4.8,0.,4.8
1979-08-05 03:09:03.370 ,3,0,1.,4.8,272.,4.8,0.,4.8,0.,4.8
1979-08-05 03:09:08.170 ,3,0,1.,4.8,248.,4.8,0.,4.8,0.,4.8
1979-08-05 03:09:12.970 ,3,0,2.,4.8,264.,4.8,0.,4.8,0.,4.8
1979-08-05 03:09:17.770 ,3,0,5.,4.8,256.,4.8,0.,4.8,0.,4.8
1979-08-05 03:09:22.570 ,3,0,1.,4.8,264.,4.8,0.,4.8,0.,4.8
1979-08-05 03:09:27.370 ,3,0,2.,4.8,256.,4.8,0.,4.8,0.,4.8
1979-08-05 03:09:32.170 ,3,0,3.,4.8,264.,4.8,0.,4.8,0.,4.8
1979-08-05 03:09:36.970 ,2,0,1.,4.8,272.,4.8,0.,4.8,0.,4.8
1979-08-05 03:09:41.770 ,2,0,2.,4.8,256.,4.8,0.,4.8,0.,4.8
1979-08-05 03:09:46.570 ,2,0,3.,4.8,252.,4.8,0.,4.8,0.,4.8
1979-08-05 03:09:51.370 ,2,0,3.,4.8,264.,4.8,0.,4.8,0.,4.8
1979-08-05 03:09:56.170 ,2,0,3.,4.8,244.,4.8,0.,4.8,0.,4.8
1979-08-05 03:10:00.970 ,2,0,4.,4.8,256.,4.8,0.,4.8,0.,4.8
1979-08-05 03:10:05.770 ,2,0,2.,4.8,256.,4.8,0.,4.8,0.,4.8
1979-08-05 03:10:10.570 ,2,0,4.,4.8,264.,4.8,0.,4.8,0.,4.8
1979-08-05 03:10:15.370 ,2,0,3.,4.8,280.,4.8,0.,4.8,0.,4.8
1979-08-05 03:10:20.170 ,2,0,2.,4.8,264.,4.8,0.,4.8,0.,4.8
1979-08-05 03:10:24.970 ,1,0,2.,4.8,256.,4.8,0.,4.8,0.,4.8
1979-08-05 03:10:29.770 ,1,0,2.,4.8,236.,4.8,0.,4.8,0.,4.8
1979-08-05 03:10:34.570 ,1,0,6.,4.8,256.,4.8,1.,4.8,0.,4.8
1979-08-05 03:10:39.370 ,1,0,6.,4.8,264.,4.8,0.,4.8,0.,4.8
1979-08-05 03:10:44.170 ,1,0,1.,4.8,264.,4.8,0.,4.8,0.,4.8
1979-08-05 03:10:48.970 ,1,0,0.,4.8,252.,4.8,0.,4.8,0.,4.8
1979-08-05 03:10:53.770 ,1,0,1.,4.8,256.,4.8,0.,4.8,0.,4.8
1979-08-05 03:10:58.570 ,1,0,4.,4.8,264.,4.8,0.,4.8,0.,4.8
1979-08-05 03:11:03.370 ,1,0,2.,4.8,264.,4.8,0.,4.8,0.,4.8
1979-08-05 03:11:08.170 ,1,0,2.,4.8,288.,4.8,0.,4.8,0.,4.8
1979-08-05 03:11:12.970 ,0,0,5.,4.8,264.,4.8,0.,4.8,0.,4.8
1979-08-05 03:11:17.770 ,0,0,6.,4.8,252.,4.8,0.,4.8,0.,4.8
1979-08-05 03:11:22.570 ,0,0,2.,4.8,264.,4.8,0.,4.8,0.,4.8
1979-08-05 03:11:27.370 ,0,0,3.,4.8,272.,4.8,0.,4.8,0.,4.8
1979-08-05 03:11:32.170 ,0,0,2.,4.8,272.,4.8,0.,4.8,0.,4.8
1979-08-05 03:11:36.970 ,0,0,2.,4.8,232.,4.8,0.,4.8,0.,4.8
1979-08-05 03:11:41.770 ,0,0,1.,4.8,248.,4.8,0.,4.8,0.,4.8
1979-08-05 03:11:46.570 ,0,0,2.,4.8,288.,4.8,0.,4.8,0.,4.8
1979-08-05 03:11:51.370 ,0,0,3.,4.8,280.,4.8,0.,4.8,0.,4.8
1979-08-05 03:11:56.170 ,0,0,3.,4.8,304.,4.8,0.,4.8,0.,4.8
1979-08-05 03:12:00.970 ,0,0,6.,4.8,280.,4.8,0.,4.8,0.,4.8
1979-08-05 03:12:05.770 ,0,0,1.,4.8,272.,4.8,0.,4.8,0.,4.8
1979-08-05 03:12:10.570 ,0,0,3.,4.8,272.,4.8,0.,4.8,1.,4.8
1979-08-05 03:12:15.370 ,0,0,3.,4.8,288.,4.8,0.,4.8,0.,4.8
1979-08-05 03:12:20.170 ,0,0,1.,4.8,272.,4.8,0.,4.8,0.,4.8
1979-08-05 03:12:24.970 ,0,0,5.,4.8,304.,4.8,0.,4.8,0.,4.8
1979-08-05 03:12:29.770 ,0,0,5.,4.8,264.,4.8,0.,4.8,0.,4.8
1979-08-05 03:12:34.570 ,0,0,1.,4.8,304.,4.8,0.,4.8,0.,4.8
1979-08-05 03:12:39.370 ,0,0,2.,4.8,304.,4.8,0.,4.8,0.,4.8
1979-08-05 03:12:44.170 ,0,0,4.,4.8,248.,4.8,0.,4.8,0.,4.8
1979-08-05 03:12:48.970 ,1,0,3.,4.8,280.,4.8,0.,4.8,0.,4.8
1979-08-05 03:12:53.770 ,1,0,8.,4.8,312.,4.8,0.,4.8,0.,4.8
1979-08-05 03:12:58.570 ,1,0,2.,4.8,264.,4.8,0.,4.8,0.,4.8
1979-08-05 03:13:03.370 ,1,0,2.,4.8,280.,4.8,0.,4.8,0.,4.8
1979-08-05 03:13:08.170 ,1,0,4.,4.8,296.,4.8,0.,4.8,0.,4.8
1979-08-05 03:13:12.970 ,1,0,2.,4.8,264.,4.8,0.,4.8,0.,4.8
1979-08-05 03:13:17.770 ,1,0,3.,4.8,264.,4.8,0.,4.8,0.,4.8
1979-08-05 03:13:22.570 ,1,0,3.,4.8,288.,4.8,0.,4.8,0.,4.8
1979-08-05 03:13:27.370 ,1,0,4.,4.8,272.,4.8,0.,4.8,0.,4.8
1979-08-05 03:13:32.170 ,1,0,0.,4.8,280.,4.8,0.,4.8,0.,4.8
1979-08-05 03:13:36.970 ,2,0,1.,4.8,264.,4.8,0.,4.8,0.,4.8
1979-08-05 03:13:41.770 ,2,0,6.,4.8,280.,4.8,0.,4.8,0.,4.8
1979-08-05 03:13:46.570 ,2,0,5.,4.8,280.,4.8,0.,4.8,0.,4.8
1979-08-05 03:13:51.370 ,2,0,3.,4.8,304.,4.8,0.,4.8,0.,4.8
1979-08-05 03:13:56.170 ,2,0,5.,4.8,320.,4.8,0.,4.8,0.,4.8
1979-08-05 03:14:00.970 ,2,0,4.,4.8,344.,4.8,0.,4.8,0.,4.8
1979-08-05 03:14:05.770 ,2,0,4.,4.8,312.,4.8,0.,4.8,0.,4.8
1979-08-05 03:14:10.570 ,2,0,3.,4.8,312.,4.8,0.,4.8,0.,4.8
1979-08-05 03:14:15.370 ,2,0,8.,4.8,288.,4.8,0.,4.8,0.,4.8
1979-08-05 03:14:20.170 ,2,0,4.,4.8,344.,4.8,0.,4.8,0.,4.8
1979-08-05 03:14:24.970 ,3,0,2.,4.8,328.,4.8,0.,4.8,0.,4.8
1979-08-05 03:14:29.770 ,3,0,1.,4.8,312.,4.8,0.,4.8,0.,4.8
1979-08-05 03:14:34.570 ,3,0,1.,4.8,328.,4.8,0.,4.8,0.,4.8
1979-08-05 03:14:39.370 ,3,0,1.,4.8,280.,4.8,0.,4.8,0.,4.8
1979-08-05 03:14:44.170 ,3,0,1.,4.8,304.,4.8,0.,4.8,0.,4.8
1979-08-05 03:14:48.970 ,3,0,8.,4.8,304.,4.8,0.,4.8,0.,4.8
1979-08-05 03:14:53.770 ,3,0,2.,4.8,312.,4.8,0.,4.8,0.,4.8
1979-08-05 03:14:58.570 ,3,0,1.,4.8,344.,4.8,0.,4.8,0.,4.8
1979-08-05 03:15:03.370 ,3,0,2.,4.8,320.,4.8,0.,4.8,0.,4.8
1979-08-05 03:15:08.170 ,3,0,4.,4.8,328.,4.8,0.,4.8,0.,4.8
1979-08-05 03:15:12.970 ,4,0,6.,4.8,320.,4.8,0.,4.8,0.,4.8
1979-08-05 03:15:17.770 ,4,0,0.,4.8,280.,4.8,0.,4.8,0.,4.8
1979-08-05 03:15:22.570 ,4,0,2.,4.8,304.,4.8,0.,4.8,0.,4.8
1979-08-05 03:15:27.370 ,4,0,4.,4.8,312.,4.8,0.,4.8,0.,4.8
1979-08-05 03:15:32.170 ,4,0,3.,4.8,264.,4.8,0.,4.8,0.,4.8
1979-08-05 03:15:36.970 ,4,0,5.,4.8,328.,4.8,0.,4.8,0.,4.8
1979-08-05 03:15:41.770 ,4,0,2.,4.8,296.,4.8,0.,4.8,0.,4.8
1979-08-05 03:15:46.570 ,4,0,3.,4.8,280.,4.8,0.,4.8,0.,4.8
1979-08-05 03:15:51.370 ,4,0,5.,4.8,312.,4.8,0.,4.8,0.,4.8
1979-08-05 03:15:56.170 ,4,0,5.,4.8,304.,4.8,0.,4.8,0.,4.8
1979-08-05 03:16:00.970 ,5,0,7.,4.8,256.,4.8,0.,4.8,0.,4.8
1979-08-05 03:16:05.770 ,5,0,3.,4.8,264.,4.8,0.,4.8,0.,4.8
1979-08-05 03:16:10.570 ,5,0,3.,4.8,296.,4.8,0.,4.8,0.,4.8
1979-08-05 03:16:15.370 ,5,0,5.,4.8,288.,4.8,0.,4.8,0.,4.8
1979-08-05 03:16:20.170 ,5,0,4.,4.8,280.,4.8,0.,4.8,0.,4.8
1979-08-05 03:16:24.970 ,5,0,,0,,0,,0,,0
1979-08-05 03:16:29.770 ,5,0,4.,4.8,264.,4.8,0.,4.8,1.,4.8
1979-08-05 03:16:34.570 ,5,0,1.,4.8,296.,4.8,0.,4.8,0.,4.8
1979-08-05 03:16:39.370 ,5,0,1.,4.8,312.,4.8,0.,4.8,0.,4.8
1979-08-05 03:16:44.170 ,5,0,4.,4.8,304.,4.8,0.,4.8,0.,4.8
1979-08-05 03:16:48.970 ,6,0,5.,4.8,296.,4.8,0.,4.8,0.,4.8
1979-08-05 03:16:53.770 ,6,0,2.,4.8,272.,4.8,0.,4.8,0.,4.8
1979-08-05 03:16:58.570 ,6,0,5.,4.8,280.,4.8,0.,4.8,0.,4.8
1979-08-05 03:17:03.370 ,6,0,4.,4.8,272.,4.8,0.,4.8,0.,4.8
1979-08-05 03:17:08.170 ,6,0,4.,4.8,312.,4.8,0.,4.8,0.,4.8
1979-08-05 03:17:12.970 ,6,0,2.,4.8,296.,4.8,0.,4.8,0.,4.8
1979-08-05 03:17:17.770 ,6,0,4.,4.8,264.,4.8,0.,4.8,0.,4.8
1979-08-05 03:17:22.570 ,6,0,1.,4.8,296.,4.8,0.,4.8,0.,4.8
1979-08-05 03:17:27.370 ,6,0,2.,4.8,296.,4.8,0.,4.8,0.,4.8
1979-08-05 03:17:32.170 ,6,0,2.,4.8,264.,4.8,0.,4.8,0.,4.8
1979-08-05 03:17:36.970 ,7,0,1.,4.8,264.,4.8,0.,4.8,0.,4.8
1979-08-05 03:17:41.770 ,7,0,4.,4.8,272.,4.8,0.,4.8,0.,4.8
1979-08-05 03:17:46.570 ,7,0,0.,4.8,320.,4.8,0.,4.8,0.,4.8
1979-08-05 03:17:51.370 ,7,0,3.,4.8,304.,4.8,0.,4.8,0.,4.8
1979-08-05 03:17:56.170 ,7,0,4.,4.8,280.,4.8,0.,4.8,0.,4.8
1979-08-05 03:18:00.970 ,7,0,3.,4.8,320.,4.8,0.,4.8,0.,4.8
1979-08-05 03:18:05.770 ,7,0,2.,4.8,312.,4.8,0.,4.8,0.,4.8
1979-08-05 03:18:10.570 ,7,0,3.,4.8,296.,4.8,0.,4.8,0.,4.8
1979-08-05 03:18:15.370 ,7,0,6.,4.8,312.,4.8,0.,4.8,0.,4.8
1979-08-05 03:18:20.170 ,7,0,3.,4.8,296.,4.8,0.,4.8,0.,4.8
1979-08-05 03:18:24.970 ,7,0,5.,4.8,272.,4.8,0.,4.8,0.,4.8
1979-08-05 03:18:29.770 ,7,0,2.,4.8,296.,4.8,0.,4.8,0.,4.8
1979-08-05 03:18:34.570 ,7,0,2.,4.8,312.,4.8,0.,4.8,0.,4.8
1979-08-05 03:18:39.370 ,7,0,6.,4.8,304.,4.8,1.,4.8,0.,4.8
1979-08-05 03:18:44.170 ,7,0,3.,4.8,296.,4.8,0.,4.8,0.,4.8
1979-08-05 03:18:48.970 ,7,0,5.,4.8,288.,4.8,0.,4.8,0.,4.8
1979-08-05 03:18:53.770 ,7,0,6.,4.8,320.,4.8,0.,4.8,0.,4.8
1979-08-05 03:18:58.570 ,7,0,2.,4.8,320.,4.8,0.,4.8,0.,4.8
1979-08-05 03:19:03.370 ,7,0,1.,4.8,280.,4.8,0.,4.8,0.,4.8
1979-08-05 03:19:08.170 ,7,0,3.,4.8,280.,4.8,0.,4.8,0.,4.8
1979-08-05 03:19:12.970 ,6,0,3.,4.8,304.,4.8,0.,4.8,0.,4.8
1979-08-05 03:19:17.770 ,6,0,1.,4.8,288.,4.8,0.,4.8,1.,4.8
1979-08-05 03:19:22.570 ,6,0,2.,4.8,304.,4.8,0.,4.8,0.,4.8
1979-08-05 03:19:27.370 ,6,0,3.,4.8,304.,4.8,0.,4.8,0.,4.8
1979-08-05 03:19:32.170 ,6,0,5.,4.8,280.,4.8,0.,4.8,0.,4.8
1979-08-05 03:19:36.970 ,6,0,2.,4.8,264.,4.8,0.,4.8,0.,4.8
1979-08-05 03:19:41.770 ,6,0,1.,4.8,320.,4.8,0.,4.8,0.,4.8
1979-08-05 03:19:46.570 ,6,0,4.,4.8,312.,4.8,0.,4.8,0.,4.8
1979-08-05 03:19:51.370 ,6,0,3.,4.8,288.,4.8,0.,4.8,0.,4.8
1979-08-05 03:19:56.170 ,6,0,2.,4.8,280.,4.8,0.,4.8,0.,4.8
1979-08-05 03:20:00.970 ,5,0,2.,4.8,296.,4.8,0.,4.8,0.,4.8
1979-08-05 03:20:05.770 ,5,0,7.,4.8,328.,4.8,0.,4.8,0.,4.8
1979-08-05 03:20:10.570 ,5,0,2.,4.8,304.,4.8,0.,4.8,0.,4.8
1979-08-05 03:20:15.370 ,5,0,4.,4.8,312.,4.8,0.,4.8,0.,4.8
1979-08-05 03:20:20.170 ,5,0,5.,4.8,288.,4.8,0.,4.8,0.,4.8
1979-08-05 03:20:24.970 ,5,0,4.,4.8,280.,4.8,0.,4.8,0.,4.8
1979-08-05 03:20:29.770 ,5,0,0.,4.8,312.,4.8,0.,4.8,0.,4.8
1979-08-05 03:20:34.570 ,5,0,4.,4.8,264.,4.8,0.,4.8,0.,4.8
1979-08-05 03:20:39.370 ,5,0,5.,4.8,280.,4.8,0.,4.8,0.,4.8
1979-08-05 03:20:44.170 ,5,0,1.,4.8,280.,4.8,0.,4.8,0.,4.8
1979-08-05 03:20:48.970 ,4,0,4.,4.8,264.,4.8,0.,4.8,0.,4.8
1979-08-05 03:20:53.770 ,4,0,2.,4.8,304.,4.8,0.,4.8,0.,4.8
1979-08-05 03:20:58.570 ,4,0,2.,4.8,280.,4.8,0.,4.8,0.,4.8
1979-08-05 03:21:03.370 ,4,0,1.,4.8,280.,4.8,0.,4.8,0.,4.8
1979-08-05 03:21:08.170 ,4,0,1.,4.8,272.,4.8,0.,4.8,0.,4.8
1979-08-05 03:21:12.970 ,0,0,1.,4.8,280.,4.8,0.,4.8,0.,4.8
1979-08-05 03:21:17.770 ,0,0,4.,4.8,288.,4.8,0.,4.8,0.,4.8
1979-08-05 03:21:22.570 ,0,0,3.,4.8,336.,4.8,0.,4.8,0.,4.8
1979-08-05 03:21:27.370 ,0,0,4.,4.8,296.,4.8,0.,4.8,0.,4.8
1979-08-05 03:21:32.170 ,0,0,2.,4.8,288.,4.8,0.,4.8,0.,4.8
1979-08-05 03:21:36.970 ,3,0,2.,4.8,288.,4.8,0.,4.8,0.,4.8
1979-08-05 03:21:41.770 ,3,0,6.,4.8,296.,4.8,0.,4.8,0.,4.8
1979-08-05 03:21:46.570 ,3,0,1.,4.8,280.,4.8,0.,4.8,0.,4.8
1979-08-05 03:21:51.370 ,3,0,1.,4.8,280.,4.8,0.,4.8,0.,4.8
1979-08-05 03:21:56.170 ,3,0,0.,4.8,288.,4.8,0.,4.8,0.,4.8
1979-08-05 03:22:00.970 ,3,0,5.,4.8,296.,4.8,0.,4.8,0.,4.8
1979-08-05 03:22:05.770 ,3,0,3.,4.8,296.,4.8,0.,4.8,0.,4.8
1979-08-05 03:22:10.570 ,3,0,0.,4.8,272.,4.8,0.,4.8,0.,4.8
1979-08-05 03:22:15.370 ,3,0,1.,4.8,288.,4.8,0.,4.8,0.,4.8
1979-08-05 03:22:20.170 ,3,0,0.,4.8,304.,4.8,0.,4.8,0.,4.8
1979-08-05 03:22:24.970 ,2,0,2.,4.8,248.,4.8,0.,4.8,0.,4.8
1979-08-05 03:22:29.770 ,2,0,2.,4.8,296.,4.8,0.,4.8,0.,4.8
1979-08-05 03:22:34.570 ,2,0,4.,4.8,280.,4.8,0.,4.8,0.,4.8
1979-08-05 03:22:39.370 ,2,0,2.,4.8,280.,4.8,0.,4.8,0.,4.8
1979-08-05 03:22:44.170 ,2,0,3.,4.8,280.,4.8,0.,4.8,0.,4.8
1979-08-05 03:22:48.970 ,2,0,7.,4.8,328.,4.8,0.,4.8,0.,4.8
1979-08-05 03:22:53.770 ,2,0,6.,4.8,264.,4.8,0.,4.8,0.,4.8
1979-08-05 03:22:58.570 ,2,0,7.,4.8,280.,4.8,0.,4.8,0.,4.8
1979-08-05 03:23:03.370 ,2,0,2.,4.8,320.,4.8,0.,4.8,0.,4.8
1979-08-05 03:23:08.170 ,2,0,3.,4.8,320.,4.8,0.,4.8,0.,4.8
1979-08-05 03:23:12.970 ,1,0,1.,4.8,296.,4.8,0.,4.8,0.,4.8
1979-08-05 03:23:17.770 ,1,0,2.,4.8,296.,4.8,0.,4.8,0.,4.8
1979-08-05 03:23:22.570 ,1,0,1.,4.8,272.,4.8,0.,4.8,0.,4.8
1979-08-05 03:23:27.370 ,1,0,3.,4.8,288.,4.8,0.,4.8,0.,4.8
1979-08-05 03:23:32.170 ,1,0,6.,4.8,280.,4.8,0.,4.8,0.,4.8
1979-08-05 03:23:36.970 ,1,0,2.,4.8,264.,4.8,0.,4.8,0.,4.8
1979-08-05 03:23:41.770 ,1,0,4.,4.8,256.,4.8,0.,4.8,2.,4.8
1979-08-05 03:23:46.570 ,1,0,3.,4.8,272.,4.8,0.,4.8,0.,4.8
1979-08-05 03:23:51.370 ,1,0,5.,4.8,288.,4.8,0.,4.8,0.,4.8
1979-08-05 03:23:56.170 ,1,0,4.,4.8,280.,4.8,0.,4.8,0.,4.8
1979-08-05 03:24:00.970 ,0,0,3.,4.8,272.,4.8,0.,4.8,0.,4.8
1979-08-05 03:24:05.770 ,0,0,5.,4.8,264.,4.8,0.,4.8,0.,4.8
1979-08-05 03:24:10.570 ,0,0,1.,4.8,272.,4.8,0.,4.8,0.,4.8
1979-08-05 03:24:15.370 ,0,0,5.,4.8,272.,4.8,0.,4.8,0.,4.8
1979-08-05 03:24:20.170 ,0,0,7.,4.8,264.,4.8,0.,4.8,0.,4.8
1979-08-05 03:24:24.970 ,0,0,5.,4.8,296.,4.8,0.,4.8,0.,4.8
1979-08-05 03:24:29.770 ,0,0,5.,4.8,272.,4.8,0.,4.8,0.,4.8
1979-08-05 03:24:34.570 ,0,0,0.,4.8,288.,4.8,0.,4.8,0.,4.8
1979-08-05 03:24:39.370 ,0,0,3.,4.8,304.,4.8,0.,4.8,0.,4.8
1979-08-05 03:24:44.170 ,0,0,3.,4.8,296.,4.8,0.,4.8,0.,4.8
1979-08-05 03:24:48.970 ,0,0,1.,4.8,288.,4.8,0.,4.8,0.,4.8
1979-08-05 03:24:53.770 ,0,0,3.,4.8,272.,4.8,0.,4.8,0.,4.8
1979-08-05 03:24:58.570 ,0,0,2.,4.8,280.,4.8,0.,4.8,0.,4.8
1979-08-05 03:25:03.370 ,0,0,5.,4.8,288.,4.8,0.,4.8,0.,4.8
1979-08-05 03:25:08.170 ,0,0,6.,4.8,272.,4.8,0.,4.8,0.,4.8
1979-08-05 03:25:12.970 ,0,0,4.,4.8,280.,4.8,0.,4.8,0.,4.8
1979-08-05 03:25:17.770 ,0,0,2.,4.8,296.,4.8,0.,4.8,0.,4.8
1979-08-05 03:25:22.570 ,0,0,4.,4.8,232.,4.8,0.,4.8,0.,4.8
1979-08-05 03:25:27.370 ,0,0,5.,4.8,312.,4.8,0.,4.8,0.,4.8
1979-08-05 03:25:32.170 ,0,0,6.,4.8,304.,4.8,0.,4.8,0.,4.8
1979-08-05 03:25:36.970 ,1,0,5.,4.8,280.,4.8,0.,4.8,0.,4.8
1979-08-05 03:25:41.770 ,1,0,10.,4.8,280.,4.8,0.,4.8,0.,4.8
1979-08-05 03:25:46.570 ,1,0,5.,4.8,304.,4.8,0.,4.8,0.,4.8
1979-08-05 03:25:51.370 ,1,0,4.,4.8,264.,4.8,0.,4.8,0.,4.8
1979-08-05 03:25:56.170 ,1,0,5.,4.8,272.,4.8,0.,4.8,0.,4.8
1979-08-05 03:26:00.970 ,1,0,2.,4.8,288.,4.8,0.,4.8,0.,4.8
1979-08-05 03:26:05.770 ,1,0,3.,4.8,288.,4.8,0.,4.8,0.,4.8
1979-08-05 03:26:10.570 ,1,0,2.,4.8,272.,4.8,0.,4.8,0.,4.8
1979-08-05 03:26:15.370 ,1,0,3.,4.8,280.,4.8,0.,4.8,0.,4.8
1979-08-05 03:26:20.170 ,1,0,1.,4.8,304.,4.8,0.,4.8,0.,4.8
1979-08-05 03:26:24.970 ,2,0,3.,4.8,288.,4.8,0.,4.8,0.,4.8
1979-08-05 03:26:29.770 ,2,0,2.,4.8,256.,4.8,0.,4.8,0.,4.8
1979-08-05 03:26:34.570 ,2,0,1.,4.8,280.,4.8,0.,4.8,0.,4.8
1979-08-05 03:26:39.370 ,2,0,4.,4.8,296.,4.8,0.,4.8,0.,4.8
1979-08-05 03:26:44.170 ,2,0,2.,4.8,288.,4.8,0.,4.8,0.,4.8
1979-08-05 03:26:48.970 ,2,0,4.,4.8,264.,4.8,0.,4.8,0.,4.8
1979-08-05 03:26:53.770 ,2,0,1.,4.8,312.,4.8,0.,4.8,0.,4.8
1979-08-05 03:26:58.570 ,2,0,2.,4.8,256.,4.8,0.,4.8,0.,4.8
1979-08-05 03:27:03.370 ,2,0,2.,4.8,252.,4.8,0.,4.8,0.,4.8
1979-08-05 03:27:08.170 ,2,0,0.,4.8,280.,4.8,0.,4.8,0.,4.8
1979-08-05 03:27:12.970 ,3,0,3.,4.8,296.,4.8,0.,4.8,0.,4.8
1979-08-05 03:27:17.770 ,3,0,4.,4.8,288.,4.8,0.,4.8,0.,4.8
1979-08-05 03:27:22.570 ,3,0,5.,4.8,264.,4.8,0.,4.8,0.,4.8
1979-08-05 03:27:27.370 ,3,0,2.,4.8,312.,4.8,0.,4.8,0.,4.8
1979-08-05 03:27:32.170 ,3,0,0.,4.8,272.,4.8,0.,4.8,0.,4.8
1979-08-05 03:27:36.970 ,3,0,2.,4.8,264.,4.8,0.,4.8,0.,4.8
1979-08-05 03:27:41.770 ,3,0,0.,4.8,296.,4.8,0.,4.8,0.,4.8
1979-08-05 03:27:46.570 ,3,0,0.,4.8,296.,4.8,0.,4.8,0.,4.8
1979-08-05 03:27:51.370 ,3,0,2.,4.8,272.,4.8,0.,4.8,0.,4.8
1979-08-05 03:27:56.170 ,3,0,2.,4.8,296.,4.8,0.,4.8,0.,4.8
1979-08-05 03:28:00.970 ,4,0,4.,4.8,272.,4.8,0.,4.8,0.,4.8
1979-08-05 03:28:05.770 ,4,0,2.,4.8,296.,4.8,0.,4.8,0.,4.8
1979-08-05 03:28:10.570 ,4,0,5.,4.8,256.,4.8,0.,4.8,0.,4.8
1979-08-05 03:28:15.370 ,4,0,4.,4.8,296.,4.8,0.,4.8,0.,4.8
1979-08-05 03:28:20.170 ,4,0,1.,4.8,288.,4.8,0.,4.8,0.,4.8
1979-08-05 03:28:24.970 ,4,0,2.,4.8,280.,4.8,0.,4.8,0.,4.8
1979-08-05 03:28:29.770 ,4,0,2.,4.8,272.,4.8,0.,4.8,1.,4.8
1979-08-05 03:28:34.570 ,4,0,2.,4.8,280.,4.8,0.,4.8,0.,4.8
1979-08-05 03:28:39.370 ,4,0,4.,4.8,256.,4.8,0.,4.8,0.,4.8
1979-08-05 03:28:44.170 ,4,0,3.,4.8,288.,4.8,0.,4.8,0.,4.8
1979-08-05 03:28:48.970 ,5,0,4.,4.8,288.,4.8,0.,4.8,0.,4.8
1979-08-05 03:28:53.770 ,5,0,3.,4.8,296.,4.8,0.,4.8,0.,4.8
1979-08-05 03:28:58.570 ,5,0,0.,4.8,288.,4.8,0.,4.8,0.,4.8
1979-08-05 03:29:03.370 ,5,0,3.,4.8,256.,4.8,0.,4.8,0.,4.8
1979-08-05 03:29:08.170 ,5,0,2.,4.8,280.,4.8,0.,4.8,0.,4.8
1979-08-05 03:29:12.970 ,5,0,4.,4.8,296.,4.8,0.,4.8,0.,4.8
1979-08-05 03:29:17.770 ,5,0,1.,4.8,256.,4.8,0.,4.8,0.,4.8
1979-08-05 03:29:22.570 ,5,0,1.,4.8,252.,4.8,0.,4.8,0.,4.8
1979-08-05 03:29:27.370 ,5,0,2.,4.8,288.,4.8,0.,4.8,0.,4.8
1979-08-05 03:29:32.170 ,5,0,2.,4.8,272.,4.8,0.,4.8,0.,4.8
1979-08-05 03:29:36.970 ,6,0,5.,4.8,256.,4.8,0.,4.8,0.,4.8
1979-08-05 03:29:41.770 ,6,0,4.,4.8,296.,4.8,0.,4.8,0.,4.8
1979-08-05 03:29:46.570 ,6,0,5.,4.8,320.,4.8,0.,4.8,0.,4.8
1979-08-05 03:29:51.370 ,6,0,3.,4.8,264.,4.8,0.,4.8,0.,4.8
1979-08-05 03:29:56.170 ,6,0,6.,4.8,288.,4.8,0.,4.8,0.,4.8
1979-08-05 03:30:00.970 ,6,0,0.,4.8,288.,4.8,0.,4.8,0.,4.8
1979-08-05 03:30:05.770 ,6,0,,0,,0,,0,,0
1979-08-05 03:30:10.570 ,6,0,1.,4.8,304.,4.8,0.,4.8,0.,4.8
1979-08-05 03:30:15.370 ,6,0,4.,4.8,288.,4.8,0.,4.8,0.,4.8
1979-08-05 03:30:20.170 ,6,0,5.,4.8,304.,4.8,0.,4.8,0.,4.8
1979-08-05 03:30:24.970 ,7,0,1.,4.8,288.,4.8,0.,4.8,0.,4.8
1979-08-05 03:30:29.770 ,7,0,1.,4.8,256.,4.8,0.,4.8,0.,4.8
1979-08-05 03:30:34.570 ,7,0,1.,4.8,264.,4.8,0.,4.8,0.,4.8
1979-08-05 03:30:39.370 ,7,0,3.,4.8,264.,4.8,0.,4.8,0.,4.8
1979-08-05 03:30:44.170 ,7,0,1.,4.8,272.,4.8,0.,4.8,0.,4.8
1979-08-05 03:30:48.970 ,7,0,3.,4.8,248.,4.8,0.,4.8,0.,4.8
1979-08-05 03:30:53.770 ,7,0,4.,4.8,320.,4.8,0.,4.8,0.,4.8
1979-08-05 03:30:58.570 ,7,0,2.,4.8,264.,4.8,0.,4.8,0.,4.8
1979-08-05 03:31:03.370 ,7,0,4.,4.8,272.,4.8,0.,4.8,0.,4.8
1979-08-05 03:31:08.170 ,7,0,2.,4.8,280.,4.8,0.,4.8,0.,4.8
1979-08-05 03:31:12.970 ,3,1,4.,4.8,272.,4.8,0.,4.8,0.,4.8
1979-08-05 03:31:17.770 ,3,1,2.,4.8,288.,4.8,0.,4.8,0.,4.8
1979-08-05 03:31:22.570 ,3,1,5.,4.8,288.,4.8,0.,4.8,0.,4.8
1979-08-05 03:31:27.370 ,3,1,2.,4.8,288.,4.8,0.,4.8,0.,4.8
1979-08-05 03:31:32.170 ,3,1,3.,4.8,304.,4.8,0.,4.8,0.,4.8
1979-08-05 03:31:36.970 ,0,1,1.,4.8,296.,4.8,0.,4.8,0.,4.8
1979-08-05 03:31:41.770 ,0,1,3.,4.8,280.,4.8,0.,4.8,0.,4.8
1979-08-05 03:31:46.570 ,0,1,3.,4.8,272.,4.8,0.,4.8,0.,4.8
1979-08-05 03:31:51.370 ,0,1,1.,4.8,272.,4.8,0.,4.8,0.,4.8
1979-08-05 03:31:56.170 ,0,1,4.,4.8,264.,4.8,0.,4.8,0.,4.8
1979-08-05 03:32:00.970 ,4,1,1.,4.8,280.,4.8,0.,4.8,0.,4.8